timestamp,surface_pressure_avg,surface_temp_avg,battery_voltage,lat,long
2020-03-04 00:09:01+00:00,211.2931,0.4,12.65,47.84626,-54.09684
2020-03-04 00:19:01+00:00,213.1248,0.4,12.65,47.84626,-54.09684
2020-03-04 00:29:01+00:00,216.6764,0.4,12.65,47.84626,-54.09684
2020-03-04 00:39:01+00:00,219.8497,0.41,12.65,47.84626,-54.09684
2020-03-04 00:49:01+00:00,223.6914,0.42,12.65,47.84626,-54.09684
2020-03-04 00:59:01+00:00,224.3615,0.4,12.65,47.84626,-54.09684
2020-03-04 01:09:01+00:00,224.5064,0.4,12.65,47.84626,-54.09684
2020-03-04 01:19:01+00:00,224.6848,0.4,12.65,47.84626,-54.09684
2020-03-04 01:29:01+00:00,224.3515,0.39,12.65,47.84626,-54.09684
2020-03-04 01:39:01+00:00,225.3114,0.37,12.65,47.84626,-54.09684
2020-03-04 01:49:01+00:00,225.5798,0.37,12.65,47.84626,-54.09684
2020-03-04 01:59:01+00:00,228.0948,0.34,12.65,47.84626,-54.09684
2020-03-04 02:09:01+00:00,231.1464,0.36,12.65,47.84626,-54.09684
2020-03-04 02:19:01+00:00,234.8414,0.34,12.57,47.84626,-54.09684
2020-03-04 02:29:01+00:00,234.5848,0.3,12.57,47.84626,-54.09684
2020-03-04 02:39:01+00:00,237.1431,0.3,12.57,47.84626,-54.09684
2020-03-04 02:49:01+00:00,243.4698,0.3,12.57,47.84626,-54.09684
2020-03-04 02:59:01+00:00,246.2015,0.3,12.57,47.84626,-54.09684
2020-03-04 03:09:01+00:00,243.3614,0.3,12.57,47.84626,-54.09684
2020-03-04 03:19:01+00:00,246.2681,0.3,12.57,47.84626,-54.09684
2020-03-04 03:29:01+00:00,251.5614,0.3,12.57,47.84626,-54.09684
2020-03-04 03:39:01+00:00,254.5015,0.3,12.57,47.84626,-54.09684
2020-03-04 03:49:01+00:00,260.2581,0.3,12.57,47.84626,-54.09684
2020-03-04 03:59:01+00:00,270.3248,0.3,12.57,47.84626,-54.09684
2020-03-04 04:09:01+00:00,277.6447,0.3,12.57,47.84626,-54.09684
2020-03-04 04:19:01+00:00,278.3897,0.3,12.57,47.84626,-54.09684
2020-03-04 04:29:01+00:00,277.2881,0.29,12.57,47.84626,-54.09684
2020-03-04 04:39:01+00:00,279.5381,0.26,12.57,47.84626,-54.09684
2020-03-04 04:49:01+00:00,284.923,0.26,12.57,47.84626,-54.09684
2020-03-04 04:59:01+00:00,285.4514,0.27,12.57,47.84626,-54.09684
2020-03-04 05:09:01+00:00,285.1547,0.26,12.57,47.84626,-54.09684
2020-03-04 05:19:01+00:00,288.1198,0.25,12.49,47.84626,-54.09684
2020-03-04 05:29:01+00:00,290.963,0.25,12.49,47.84626,-54.09684
2020-03-04 05:39:01+00:00,291.6097,0.24,12.49,47.84626,-54.09684
2020-03-04 05:49:01+00:00,293.433,0.23,12.49,47.84626,-54.09684
2020-03-04 05:59:01+00:00,298.5113,0.23,12.49,47.84626,-54.09684
2020-03-04 06:09:01+00:00,303.353,0.24,12.49,47.84626,-54.09684
2020-03-04 06:19:01+00:00,307.1613,0.25,12.49,47.84626,-54.09684
2020-03-04 06:29:01+00:00,310.4481,0.26,12.49,47.84626,-54.09684
2020-03-04 06:39:01+00:00,313.0897,0.27,12.49,47.84626,-54.09684
2020-03-04 06:49:01+00:00,311.6998,0.22,12.49,47.84626,-54.09684
2020-03-04 06:59:01+00:00,311.5247,0.2,12.49,47.84626,-54.09684
2020-03-04 07:09:01+00:00,309.803,0.2,12.49,47.84626,-54.09684
2020-03-04 07:19:01+00:00,309.828,0.2,12.49,47.84626,-54.09684
2020-03-04 07:29:01+00:00,310.1663,0.2,12.49,47.84626,-54.09684
2020-03-04 07:39:01+00:00,310.9281,0.2,12.49,47.84626,-54.09684
2020-03-04 07:49:01+00:00,307.798,0.2,12.49,47.84626,-54.09684
2020-03-04 07:59:01+00:00,308.4364,0.2,12.49,47.84626,-54.09684
2020-03-04 08:09:01+00:00,311.9696,0.2,12.49,47.84626,-54.09684
2020-03-04 08:19:01+00:00,307.2081,0.2,12.49,47.84626,-54.09684
2020-03-04 08:29:01+00:00,291.2197,0.2,12.49,47.84626,-54.09684
2020-03-04 08:39:01+00:00,282.9847,0.2,12.49,47.84626,-54.09684
2020-03-04 08:49:01+00:00,280.798,0.2,12.49,47.84626,-54.09684
2020-03-04 08:59:01+00:00,275.1264,0.2,12.49,47.84626,-54.09684
2020-03-04 09:09:01+00:00,263.9981,0.2,12.49,47.84626,-54.09684
2020-03-04 09:19:01+00:00,259.9747,0.2,12.49,47.84626,-54.09684
2020-03-04 09:29:01+00:00,265.1947,0.2,12.49,47.84626,-54.09684
2020-03-04 09:39:01+00:00,264.2514,0.2,12.49,47.84626,-54.09684
2020-03-04 09:49:01+00:00,261.0264,0.2,12.49,47.84626,-54.09684
2020-03-04 09:59:01+00:00,258.4198,0.2,12.49,47.84626,-54.09684
2020-03-04 10:09:01+00:00,253.2131,0.2,12.49,47.84626,-54.09684
2020-03-04 10:19:01+00:00,242.1014,0.2,12.49,47.84626,-54.09684
2020-03-04 10:29:01+00:00,239.3481,0.2,12.49,47.84626,-54.09684
2020-03-04 10:39:01+00:00,244.3047,0.2,12.49,47.84626,-54.09684
2020-03-04 10:49:01+00:00,245.7215,0.2,12.49,47.84626,-54.09684
2020-03-04 10:59:01+00:00,239.6864,0.2,12.49,47.84626,-54.09684
2020-03-04 11:09:01+00:00,238.1098,0.2,12.49,47.84626,-54.09684
2020-03-04 11:19:01+00:00,243.7831,0.2,12.49,47.84626,-54.09684
2020-03-04 11:29:01+00:00,249.2048,0.2,12.49,47.84626,-54.09684
2020-03-04 11:39:01+00:00,245.873,0.2,12.49,47.84626,-54.09684
2020-03-04 11:49:01+00:00,238.8664,0.2,12.49,47.84626,-54.09684
2020-03-04 11:59:01+00:00,239.1047,0.2,12.49,47.84626,-54.09684
2020-03-04 12:09:01+00:00,246.7014,0.2,12.49,47.84626,-54.09684
2020-03-04 12:19:01+00:00,244.7797,0.2,12.57,47.84626,-54.09684
2020-03-04 12:29:01+00:00,234.6698,0.2,12.57,47.84626,-54.09684
2020-03-04 12:39:01+00:00,233.0815,0.2,12.57,47.84626,-54.09684
2020-03-04 12:49:01+00:00,241.4348,0.2,12.57,47.84626,-54.09684
2020-03-04 12:59:01+00:00,245.9381,0.2,12.57,47.84626,-54.09684
2020-03-04 13:09:01+00:00,245.2998,0.2,12.57,47.84626,-54.09684
2020-03-04 13:19:01+00:00,249.4447,0.2,12.65,47.84626,-54.09684
2020-03-04 13:29:01+00:00,251.2347,0.2,12.65,47.84626,-54.09684
2020-03-04 13:39:01+00:00,243.7181,0.2,12.65,47.84626,-54.09684
2020-03-04 13:49:01+00:00,242.5048,0.2,12.65,47.84626,-54.09684
2020-03-04 13:59:01+00:00,248.7114,0.2,12.65,47.84626,-54.09684
2020-03-04 14:09:01+00:00,250.0014,0.21,12.65,47.84626,-54.09684
2020-03-04 14:19:01+00:00,241.2481,0.2,12.73,47.84626,-54.09684
2020-03-04 14:29:01+00:00,240.0547,0.2,12.73,47.84626,-54.09684
2020-03-04 14:39:01+00:00,246.4581,0.22,12.73,47.84626,-54.09684
2020-03-04 14:49:01+00:00,247.5064,0.24,12.73,47.84626,-54.09684
2020-03-04 14:59:01+00:00,246.0447,0.24,12.73,47.84626,-54.09684
2020-03-04 15:09:01+00:00,249.0981,0.24,12.73,47.84626,-54.09684
2020-03-04 15:19:01+00:00,253.8647,0.24,12.81,47.84626,-54.09684
2020-03-04 15:29:01+00:00,257.2164,0.25,12.81,47.84626,-54.09684
2020-03-04 15:39:01+00:00,258.7814,0.26,12.81,47.84626,-54.09684
2020-03-04 15:49:01+00:00,267.9397,0.26,12.81,47.84626,-54.09684
2020-03-04 15:59:01+00:00,276.1564,0.26,12.81,47.84626,-54.09684
2020-03-04 16:09:01+00:00,278.4047,0.25,12.81,47.84626,-54.09684
2020-03-04 16:19:01+00:00,277.4981,0.28,12.89,47.84626,-54.09684
2020-03-04 16:29:01+00:00,289.3464,0.29,12.89,47.84626,-54.09684
2020-03-04 16:39:01+00:00,294.9131,0.29,12.89,47.84626,-54.09684
2020-03-04 16:49:01+00:00,290.0164,0.29,12.89,47.84626,-54.09684
2020-03-04 16:59:01+00:00,295.1364,0.3,12.89,47.84626,-54.09684
2020-03-04 17:09:01+00:00,310.6064,0.29,12.89,47.84626,-54.09684
2020-03-04 17:19:01+00:00,317.368,0.27,12.81,47.84626,-54.09684
2020-03-04 17:29:01+00:00,314.4547,0.29,12.81,47.84626,-54.09684
2020-03-04 17:39:01+00:00,315.2297,0.29,12.81,47.84626,-54.09684
2020-03-04 17:49:01+00:00,326.7113,0.29,12.81,47.84626,-54.09684
2020-03-04 17:59:01+00:00,328.8830000000001,0.28,12.81,47.84626,-54.09684
2020-03-04 18:09:01+00:00,325.2897,0.28,12.81,47.84626,-54.09684
2020-03-04 18:19:01+00:00,323.08799999999997,0.3,12.73,47.84626,-54.09684
2020-03-04 18:29:01+00:00,329.6380000000001,0.3,12.73,47.84626,-54.09684
2020-03-04 18:39:01+00:00,337.6563,0.29,12.73,47.84626,-54.09684
2020-03-04 18:49:01+00:00,335.0613,0.28,12.73,47.84626,-54.09684
2020-03-04 18:59:01+00:00,340.4946,0.27,12.73,47.84626,-54.09684
2020-03-04 19:09:01+00:00,356.50300000000016,0.28,12.73,47.84626,-54.09684
2020-03-04 19:19:01+00:00,362.5946,0.28,12.65,47.84626,-54.09684
2020-03-04 19:29:01+00:00,350.033,0.25,12.65,47.84626,-54.09684
2020-03-04 19:39:01+00:00,340.7747,0.2,12.65,47.84626,-54.09684
2020-03-04 19:49:01+00:00,346.6896,0.2,12.65,47.84626,-54.09684
2020-03-04 19:59:01+00:00,346.6413,0.2,12.65,47.84626,-54.09684
2020-03-04 20:09:01+00:00,349.2913,0.2,12.65,47.84626,-54.09684
2020-03-04 20:19:01+00:00,353.0598,0.22,12.57,47.84626,-54.09684
2020-03-04 20:29:01+00:00,351.1146,0.23,12.57,47.84626,-54.09684
2020-03-04 20:39:01+00:00,343.1163,0.21,12.57,47.84626,-54.09684
2020-03-04 20:49:01+00:00,336.5529,0.2,12.57,47.84626,-54.09684
2020-03-04 20:59:01+00:00,337.713,0.22,12.57,47.84626,-54.09684
2020-03-04 21:09:01+00:00,335.9346,0.28,12.57,47.84626,-54.09684
2020-03-04 21:19:01+00:00,328.3347,0.29,12.57,47.84626,-54.09684
2020-03-04 21:29:01+00:00,319.4547,0.28,12.57,47.84626,-54.09684
2020-03-04 21:39:01+00:00,309.363,0.25,12.57,47.84626,-54.09684
2020-03-04 21:49:01+00:00,298.1597,0.2,12.57,47.84626,-54.09684
2020-03-04 21:59:01+00:00,290.9064,0.2,12.57,47.84626,-54.09684
2020-03-04 22:09:01+00:00,288.8813,0.2,12.57,47.84626,-54.09684
2020-03-04 22:19:01+00:00,284.3064,0.2,12.49,47.84626,-54.09684
2020-03-04 22:29:01+00:00,278.2347,0.2,12.49,47.84626,-54.09684
2020-03-04 22:39:01+00:00,275.0947,0.19,12.49,47.84626,-54.09684
2020-03-04 22:49:01+00:00,267.563,0.19,12.49,47.84626,-54.09684
2020-03-04 22:59:01+00:00,262.9197,0.19,12.49,47.84626,-54.09684
2020-03-04 23:09:01+00:00,260.7047,0.18,12.49,47.84626,-54.09684
2020-03-04 23:19:01+00:00,258.9064,0.18,12.49,47.84626,-54.09684
2020-03-04 23:29:01+00:00,260.8381,0.18,12.49,47.84626,-54.09684
2020-03-04 23:39:01+00:00,257.4531,0.17,12.49,47.84626,-54.09684
2020-03-04 23:49:01+00:00,246.6614,0.15,12.49,47.84626,-54.09684
2020-03-04 23:59:01+00:00,243.8831,0.17,12.49,47.84626,-54.09684
